Other Public Products
Issued by NWS Grand Forks, ND

Home | Current Version | Previous Version | Graphics & Text | Print | Product List | Glossary On
Versions: 1 2 3 4 5 6 7 8 9 10 11 12 13 14 15 16 17 18 19 20 21 22 23 24 25 26 27 28 29 30 31 32 33 34 35 36 37 38 39 40 41 42 43 44 45 46 47 48 49 50
000
FPUS83 KFGF 252210
OPUFGF
PRAIRIE TO PINES WEATHER ROUNDUP
NATIONAL WEATHER SERVICE EASTERN NORTH DAKOTA/GRAND FORKS ND
400 PM CST TUE NOV 25 2014

 **SATELLITE DATA USED TO AUGMENT SKY COVER AT AUTOMATED STATIONS**
 *****  WEATHER ACROSS EASTERN NORTH DAKOTA  *****

CITY           SKY/WX    TMP DP  RH WIND       PRES   REMARKS
GRAND FORKS    CLOUDY    21  15  78 NE12      29.95R WCI   9
GRAND FORKS AF CLOUDY    19  15  83 NE9       29.94R WCI   8
GRAND CITY NWS   N/A     21 N/A N/A NE9         N/A  WCI  11
BUXTON         NOT AVBL
DEVILS LAKE    CLOUDY    19  10  68 E16       29.84R WCI   5
FARGO          CLOUDY    27  18  69 SE12      29.91S WCI  17
WAHPETON ARPT  CLOUDY    27  18  69 SE8       29.92S WCI  18
$$

 *****  WEATHER ACROSS CENTRAL AND WESTERN NORTH DAKOTA  *****

CITY           SKY/WX    TMP DP  RH WIND       PRES   REMARKS
JAMESTOWN      LGT SNOW  29  25  85 SE13      29.79S VSB 3/4 WCI  19
BISMARCK       LGT SNOW  32  31  96 S7        29.70S VSB 3/4
MINOT          SNOW      25  21  86 NE17      29.77R VSB 1/4 WCI  11
MINOT AFB      SNOW      23  23 100 E16       29.79R VSB 1/2 WCI  10
GARRISON         N/A     31  30  96 E7        29.68R WCI  24
WILLISTON      CLOUDY    30  26  85 N22       29.78R WCI  17
DICKINSON      CLOUDY    35  30  82 NW21      29.68R WCI  24
HETTINGER      MOCLDY    36  29  75 NW21G29   29.72R
$$

 *****  OTHER OBSERVATIONS NORTHEAST NORTH DAKOTA  *****

CITY           SKY/WX    TMP DP  RH WIND       PRES   REMARKS
WALHALLA         N/A     16  10  79 NE10      29.98R WCI   3
LANGDON        LGT SNOW  16  10  79 E14       29.89R WCI   1
CAVALIER       CLOUDY    16  10  79 N9        29.98R WCI   4
GRAFTON        CLOUDY    18  12  79 NE9       29.97R WCI   6
CANDO          LGT SNOW  18  16  93 E10       29.88R WCI   6
FORT TOTTEN    NOT AVBL
ROLLA          LGT SNOW  16  16 100 NE14      29.89R WCI   1
RUGBY          LGT SNOW  19  18  93 E18G26    29.83R VSB 1   WCI   4
 ***** THE ABOVE OBSERVATIONS ARE NON NWS ARE NOT QUALITY
        CONTROLLED AND MAY MIS-REPORT RAIN FOR SNOW...
$$

 *****  OTHER OBSERVATIONS SOUTHEAST NORTH DAKOTA *****

CITY           SKY/WX    TMP DP  RH WIND       PRES   REMARKS
COOPERSTOWN    NOT AVBL
VALLEY CITY    CLOUDY    28  27  93 SE12      29.84R WCI  18
OAKES            N/A     32  27  80 SE10      29.83S WCI  24
GWINNER        PTCLDY    32  25  74 SE14      29.86S WCI  22
BUFFALO        NOT AVBL
WYNDMERE         N/A     28  21  74 SE9         N/A  WCI  20
 ***** THE ABOVE OBSERVATIONS ARE NON NWS ARE NOT QUALITY
       CONTROLLED AND MAY MIS-REPORT RAIN FOR SNOW...
$$

  *****  WEATHER ACROSS NORTHERN MINNESOTA  *****

CITY           SKY/WX    TMP DP  RH WIND       PRES   REMARKS
FLAG ISLAND    LGT SNOW  12   7  79 CALM      29.96R
WARROAD        FLURRIES  18  12  79 NW3       29.97R
ROSEAU         CLOUDY    19  12  73 N3        29.96R
HALLOCK        CLOUDY    18  10  73 N8        29.97R WCI   7
THF RVR FALLS  CLOUDY    21  16  79 NE5       29.95R WCI  15
HALSTAD          N/A     26  18  72 SE7         N/A  WCI  18
FOSSTON        MOCLDY    21  16  79 CALM      29.92S
BAUDETTE       CLOUDY    18  12  77 E5        29.94R HAZE    WCI  11
WASKISH        CLOUDY    19  14  79 CALM      29.95R
CROOKSTON      CLOUDY    21  16  79 E6        29.95R WCI  14
$$
  *****  WEATHER ACROSS CENTRAL AND WEST MINNESOTA  *****

CITY           SKY/WX    TMP DP  RH WIND       PRES   REMARKS
BEMIDJI        CLOUDY    20  12  71 E5        29.92R WCI  14
PARK RAPIDS    CLOUDY    21  12  68 SE10      29.91F WCI  10
WADENA         CLOUDY    21  10  63 SE7       29.92F WCI  13
DETROIT LAKES  CLOUDY    23  18  80 SE9       29.91F WCI  13
MOORHEAD       CLOUDY    27  21  80 SE8       29.93R WCI  18
FERGUS FALLS   CLOUDY    23  12  63 SE12      29.95S WCI  12
ELBOW LAKE       N/A     22  14  71 SE10      29.91F WCI  11
MORRIS MN      CLOUDY    25  18  74 SE10      29.92S WCI  15
STAPLES        MOCLDY    19   7  58 SE6       29.95F WCI  11
WHEATON        CLOUDY    23  18  80 E12       29.93R WCI  12
$$
  *****  WEATHER ELSEWHERE ACROSS MINNESOTA  *****

CITY           SKY/WX    TMP DP  RH WIND       PRES   REMARKS
DULUTH         PTCLDY    19   7  59 SW7       29.95S WCI  10
INTRNTL FALLS  MOCLDY    16   7  67 W5        29.95R WCI   9
ELY            CLEAR     16   5  62 CALM      29.95R
CLOQUET        MOCLDY    19   7  58 S6        29.97S WCI  11
BRAINERD       CLOUDY    18   7  62 S6        29.97F WCI  10
HIBBING        CLOUDY    22  -2  35 SW5       29.95R WCI  16
ALEXANDRIA     CLOUDY    22  10  60 SE9       29.94S WCI  12
SAINT CLOUD    CLOUDY    20   9  62 SE7       30.00S WCI  11
MINNEAPOLIS    CLOUDY    23  12  62 S7        30.04S WCI  15
$$

  *****  WEATHER ACROSS SOUTH DAKOTA  *****

CITY           SKY/WX    TMP DP  RH WIND       PRES   REMARKS
SIOUX FALLS    CLOUDY    36  23  59 SE9       29.88F
BROOKINGS      NOT AVBL
WATERTOWN      CLOUDY    32  24  72 SE8       29.85R WCI  25
HURON          CLOUDY    36  26  67 SE8       29.82S
SISSETON         N/A     28  22  78 S12       29.88S WCI  18
ABERDEEN       LGT SNOW  32  27  81 SE10      29.82F WCI  24
MITCHELL       CLOUDY    39  27  62 SE10      29.83S
PIERRE         CLOUDY    36  27  69 S7        29.76R
MOBRIDGE       LGT SNOW  33  31  92 S12       29.71S FOG     WCI  24
RAPID CITY     CLOUDY    36  31  82 NW26G38   29.79R
$$

  *****  SOME WEATHER IN NEARBY STATES *****

CITY           SKY/WX    TMP DP  RH WIND       PRES   REMARKS
GLASGOW MT     CLOUDY    31  25  78 N23       29.91R WCI  18
GREAT FALLS MT CLOUDY    34  22  61 NW7       30.08R
CHEYENNE WY    MOSUNNY   42  21  43 W36G49    29.84R
SCOTTSBLUFF NE LGT RAIN  37  33  85 NW21      29.87R
OMAHA NE       MOCLDY    42  24  49 SE14      29.98F
DES MOINES IA  PTCLDY    36   8  31 S7        30.06F
DAVENPORT IA   CLEAR     23  16  74 W7        30.15R WCI  15
CHICAGO IL     PTCLDY    23  16  74 W12       30.13S WCI  12
EAU CLAIRE WI  CLOUDY    21  13  71 S5        30.06R WCI  15
LA CROSSE WI   CLEAR     25  13  60 S6        30.09R WCI  18
$$

  *****  SOME NATIONAL WEATHER *****

CITY           SKY/WX    TMP DP  RH WIND       PRES   REMARKS
LA GUARDIA NY  CLOUDY    53  28  38 W8        30.02R
RALEIGH NC     CLOUDY    55  40  56 NE5       30.09R
ATLANTA GA     MOCLDY    59  27  29 NW9       30.00R
NEW ORLEANS LA CLOUDY    55  33  43 N9        30.15F
OKLAHOMA CITY  MOSUNNY   54  26  34 SW9       30.12F
ALBUQUERQUE NM MOSUNNY   48   3  15 W10       30.28F
SALT LAKE CITY PTSUNNY   44  26  49 SE10      30.31F
LOS ANGELES CA SUNNY     75  25  15 W10       30.27F
BOISE ID       CLOUDY    53  43  68 N7        30.24S
SEATTLE WA     LGT RAIN  50  48  93 CALM      30.19F FOG
$$

*** WEATHER ACROSS MANITOBA...SASKATCHEWAN AND ONTARIO ***
                ***ONTARIO***

CITY           SKY/WX    TMP DP  RH WIND       PRES   REMARKS
GERALDTON      MOCLDY    12   7  79 W6        29.91R WCI   3
THUNDER BAY    PTCLDY    18   3  53 W3        29.99R
SIOUX LOOKOUT  MOCLDY    10   5  79 NW7       29.94R WCI   0
TORONTO        CLOUDY    34  25  69 W20G28    30.01R WCI  22
BIG TROUT LK   CLEAR    -13 -20  70 NW6       29.99R WCI -27
PICKLE LAKE    CRYSTALS   1  -6  71 W3        29.92R
DRYDEN         FLURRIES  12   7  79 W5        29.94R WCI   4
KENORA         NOT AVBL
$$
                *** MANITOBA***

CITY           SKY/WX    TMP DP  RH WIND       PRES   REMARKS
BRANDON        LGT SNOW  10   5  79 NE20      30.00R DRFTSNOWWCI  -8
DAUPHIN        CLOUDY     3   0  85 N14       30.11R WCI -15
ISLAND LAKE    NOT AVBL
PILOT MOUND      N/A     12   9  85 NE14        N/A  WCI  -3
THE PAS        CLEAR     -6 -15  65 NW9       30.20R WCI -22
THOMPSON       CLEAR    -13 -22  64 W9        30.14R WCI -31
WINNIPEG       LGT SNOW   9   3  78 NE15      30.06R WCI  -8
LYNN LAKE      CLEAR    -17 -22  76 NW8       30.16R WCI -34
CHURCHILL      CRYSTALS -11 -17  77 NW17      30.08R BLWGSNOWWCI -35
GILLAM         CLEAR    -17 -24  70 NW10      30.09R WCI -37
$$
                ***SASKATCHEWAN***

CITY           SKY/WX    TMP DP  RH WIND       PRES   REMARKS
ESTEVAN        LGT SNOW  19  14  79 NE18      29.88R DRFTSNOWWCI   4
KINDERSLEY     FLURRIES  14  10  85 N5        30.09R WCI   6
LLOYDMINSTER   SNOWSHWR   9   5  85 N7        30.13R WCI  -3
PRINCE ALBERT  MOCLDY     3  -2  78 CALM      30.17R
REGINA         MOCLDY    18  12  79 N12       29.99R WCI   5
YORKTON        CLOUDY     3  -2  78 N14       30.05R WCI -15


USA.gov is the U.S. government's official web portal to all federal, state and local government web resources and services.